Time,TemperatureF,DewpointF,PressureIn,WindDirection,WindDirectionDegrees,WindSpeedMPH,WindSpeedGustMPH,Humidity,HourlyPrecipIn,Conditions,Clouds,dailyrainin,SoftwareType,DateUTC
2013-06-22 00:04:00,66.4,0.0,30.20,West,270,10.0,13.0,0,0.00,,,-99.99,Weather View 32 v60,2013-06-22 04:04:00,
2013-06-22 00:09:00,66.4,0.0,30.20,WSW,248,7.0,12.0,0,0.00,,,-99.99,Weather View 32 v60,2013-06-22 04:09:00,
2013-06-22 00:14:00,66.7,0.0,30.20,SW,225,8.0,12.0,0,0.00,,,-99.99,Weather View 32 v60,2013-06-22 04:14:00,
2013-06-22 00:24:00,66.7,0.0,30.20,SW,225,7.0,12.0,0,0.00,,,-99.99,Weather View 32 v60,2013-06-22 04:24:00,
2013-06-22 00:29:00,66.7,0.0,30.20,WSW,248,6.0,11.0,0,0.00,,,-99.99,Weather View 32 v60,2013-06-22 04:29:00,
2013-06-22 00:34:00,66.4,0.0,30.20,SW,225,6.0,11.0,0,0.00,,,-99.99,Weather View 32 v60,2013-06-22 04:34:00,
2013-06-22 00:39:00,66.4,0.0,30.20,WSW,248,6.0,11.0,0,0.00,,,-99.99,Weather View 32 v60,2013-06-22 04:39:00,
2013-06-22 00:44:00,66.4,0.0,30.20,WSW,248,4.0,11.0,0,0.00,,,-99.99,Weather View 32 v60,2013-06-22 04:44:00,
2013-06-22 00:49:00,66.0,0.0,30.19,WSW,248,6.0,11.0,0,0.00,,,-99.99,Weather View 32 v60,2013-06-22 04:49:00,
2013-06-22 00:54:00,66.0,0.0,30.19,SW,225,9.0,11.0,0,0.00,,,-99.99,Weather View 32 v60,2013-06-22 04:54:00,
2013-06-22 00:59:00,65.7,0.0,30.19,West,270,2.0,11.0,0,0.00,,,-99.99,Weather View 32 v60,2013-06-22 04:59:00,
2013-06-22 01:04:00,65.7,0.0,30.19,WSW,248,6.0,11.0,0,0.00,,,-99.99,Weather View 32 v60,2013-06-22 05:04:00,
2013-06-22 01:09:00,65.7,0.0,30.19,WSW,248,6.0,11.0,0,0.00,,,-99.99,Weather View 32 v60,2013-06-22 05:09:00,
2013-06-22 01:19:00,65.7,0.0,30.19,SW,225,1.0,9.0,0,0.00,,,-99.99,Weather View 32 v60,2013-06-22 05:19:00,
2013-06-22 01:24:00,65.7,0.0,30.19,SW,225,4.0,9.0,0,0.00,,,-99.99,Weather View 32 v60,2013-06-22 05:24:00,
2013-06-22 01:29:00,65.7,0.0,30.19,SW,225,3.0,9.0,0,0.00,,,-99.99,Weather View 32 v60,2013-06-22 05:29:00,
2013-06-22 01:34:00,65.7,0.0,30.19,WSW,248,2.0,9.0,0,0.00,,,-99.99,Weather View 32 v60,2013-06-22 05:34:00,
2013-06-22 01:39:00,65.7,0.0,30.19,SW,225,5.0,9.0,0,0.00,,,-99.99,Weather View 32 v60,2013-06-22 05:39:00,
2013-06-22 01:44:00,65.7,0.0,30.19,WSW,248,7.0,9.0,0,0.00,,,-99.99,Weather View 32 v60,2013-06-22 05:44:00,
2013-06-22 01:49:00,65.7,0.0,30.19,SW,225,6.0,9.0,0,0.00,,,-99.99,Weather View 32 v60,2013-06-22 05:49:00,
2013-06-22 01:54:00,65.7,0.0,30.20,SW,225,5.0,9.0,0,0.00,,,-99.99,Weather View 32 v60,2013-06-22 05:54:00,
2013-06-22 01:59:00,65.5,0.0,30.20,SW,225,7.0,9.0,0,0.00,,,-99.99,Weather View 32 v60,2013-06-22 05:59:00,
2013-06-22 02:04:00,65.5,0.0,30.20,SW,225,4.0,9.0,0,0.00,,,-99.99,Weather View 32 v60,2013-06-22 06:04:00,
2013-06-22 02:09:00,65.5,0.0,30.20,WSW,248,6.0,9.0,0,0.00,,,-99.99,Weather View 32 v60,2013-06-22 06:09:00,
2013-06-22 02:19:00,65.5,0.0,30.20,SW,225,2.0,9.0,0,0.00,,,-99.99,Weather View 32 v60,2013-06-22 06:19:00,
2013-06-22 02:24:00,65.5,0.0,30.20,SW,225,2.0,9.0,0,0.00,,,-99.99,Weather View 32 v60,2013-06-22 06:24:00,
2013-06-22 02:29:00,65.5,0.0,30.20,WSW,248,2.0,9.0,0,0.00,,,-99.99,Weather View 32 v60,2013-06-22 06:29:00,
2013-06-22 02:34:00,65.5,0.0,30.20,WSW,248,7.0,9.0,0,0.00,,,-99.99,Weather View 32 v60,2013-06-22 06:34:00,
2013-06-22 02:39:00,65.5,0.0,30.20,WSW,248,4.0,9.0,0,0.00,,,-99.99,Weather View 32 v60,2013-06-22 06:39:00,
2013-06-22 02:44:00,65.5,0.0,30.20,WSW,248,3.0,9.0,0,0.00,,,-99.99,Weather View 32 v60,2013-06-22 06:44:00,
2013-06-22 02:49:00,65.5,0.0,30.19,WNW,293,2.0,8.0,0,0.00,,,-99.99,Weather View 32 v60,2013-06-22 06:49:00,
2013-06-22 02:54:00,65.5,0.0,30.19,West,270,3.0,8.0,0,0.00,,,-99.99,Weather View 32 v60,2013-06-22 06:54:00,
2013-06-22 02:59:00,65.8,0.0,30.19,SW,225,3.0,8.0,0,0.00,,,-99.99,Weather View 32 v60,2013-06-22 06:59:00,
2013-06-22 03:04:00,65.8,0.0,30.20,WNW,293,2.0,8.0,0,0.00,,,-99.99,Weather View 32 v60,2013-06-22 07:04:00,
2013-06-22 03:09:00,65.8,0.0,30.20,West,270,5.0,8.0,0,0.00,,,-99.99,Weather View 32 v60,2013-06-22 07:09:00,
2013-06-22 03:14:00,66.2,0.0,30.19,West,270,5.0,8.0,0,0.00,,,-99.99,Weather View 32 v60,2013-06-22 07:14:00,
2013-06-22 03:24:00,66.2,0.0,30.19,WNW,293,3.0,8.0,0,0.00,,,-99.99,Weather View 32 v60,2013-06-22 07:24:00,
2013-06-22 03:29:00,66.2,0.0,30.19,WNW,293,5.0,8.0,0,0.00,,,-99.99,Weather View 32 v60,2013-06-22 07:29:00,
2013-06-22 03:34:00,66.2,0.0,30.19,WNW,293,5.0,8.0,0,0.00,,,-99.99,Weather View 32 v60,2013-06-22 07:34:00,
2013-06-22 03:39:00,66.2,0.0,30.19,WNW,293,5.0,8.0,0,0.00,,,-99.99,Weather View 32 v60,2013-06-22 07:39:00,
2013-06-22 03:44:00,66.2,0.0,30.19,WNW,293,5.0,8.0,0,0.00,,,-99.99,Weather View 32 v60,2013-06-22 07:44:00,
2013-06-22 03:49:00,66.2,0.0,30.19,WNW,293,5.0,8.0,0,0.00,,,-99.99,Weather View 32 v60,2013-06-22 07:49:00,
2013-06-22 03:54:00,66.2,0.0,30.19,WNW,293,5.0,8.0,0,0.00,,,-99.99,Weather View 32 v60,2013-06-22 07:54:00,
2013-06-22 03:59:00,66.2,0.0,30.18,WNW,293,5.0,8.0,0,0.00,,,-99.99,Weather View 32 v60,2013-06-22 07:59:00,
2013-06-22 04:04:00,66.2,0.0,30.18,WNW,293,5.0,8.0,0,0.00,,,-99.99,Weather View 32 v60,2013-06-22 08:04:00,
2013-06-22 04:09:00,65.8,0.0,30.18,WNW,293,5.0,8.0,0,0.00,,,-99.99,Weather View 32 v60,2013-06-22 08:09:00,
2013-06-22 04:14:00,65.5,0.0,30.18,SW,225,4.0,10.0,0,0.00,,,-99.99,Weather View 32 v60,2013-06-22 08:14:00,
2013-06-22 04:24:00,65.5,0.0,30.19,SW,225,4.0,10.0,0,0.00,,,-99.99,Weather View 32 v60,2013-06-22 08:24:00,
2013-06-22 04:29:00,64.8,0.0,30.19,SW,225,3.0,10.0,0,0.00,,,-99.99,Weather View 32 v60,2013-06-22 08:29:00,
2013-06-22 04:34:00,64.8,0.0,30.19,SW,225,4.0,10.0,0,0.00,,,-99.99,Weather View 32 v60,2013-06-22 08:34:00,
2013-06-22 04:39:00,64.8,0.0,30.19,WSW,248,6.0,10.0,0,0.00,,,-99.99,Weather View 32 v60,2013-06-22 08:39:00,
2013-06-22 04:44:00,64.4,0.0,30.19,SW,225,5.0,10.0,0,0.00,,,-99.99,Weather View 32 v60,2013-06-22 08:44:00,
2013-06-22 04:49:00,64.4,0.0,30.19,WNW,293,2.0,10.0,0,0.00,,,-99.99,Weather View 32 v60,2013-06-22 08:49:00,
2013-06-22 04:54:00,64.4,0.0,30.19,WNW,293,3.0,10.0,0,0.00,,,-99.99,Weather View 32 v60,2013-06-22 08:54:00,
2013-06-22 04:59:00,64.4,0.0,30.19,West,270,1.0,10.0,0,0.00,,,-99.99,Weather View 32 v60,2013-06-22 08:59:00,
2013-06-22 05:09:00,64.4,0.0,30.19,WNW,293,2.0,10.0,0,0.00,,,-99.99,Weather View 32 v60,2013-06-22 09:09:00,
2013-06-22 05:14:00,64.4,0.0,30.19,WNW,293,2.0,6.0,0,0.00,,,-99.99,Weather View 32 v60,2013-06-22 09:14:00,
2013-06-22 05:24:00,64.4,0.0,30.19,WSW,248,0.0,6.0,0,0.00,,,-99.99,Weather View 32 v60,2013-06-22 09:24:00,
2013-06-22 05:29:00,64.4,0.0,30.19,WSW,248,0.0,6.0,0,0.00,,,-99.99,Weather View 32 v60,2013-06-22 09:29:00,
2013-06-22 05:34:00,64.4,0.0,30.19,WNW,293,3.0,6.0,0,0.00,,,-99.99,Weather View 32 v60,2013-06-22 09:34:00,
2013-06-22 05:39:00,64.4,0.0,30.19,WSW,248,2.0,6.0,0,0.00,,,-99.99,Weather View 32 v60,2013-06-22 09:39:00,
2013-06-22 05:44:00,64.4,0.0,30.19,SW,225,0.0,6.0,0,0.00,,,-99.99,Weather View 32 v60,2013-06-22 09:44:00,
2013-06-22 05:49:00,64.4,0.0,30.19,SW,225,0.0,5.0,0,0.00,,,-99.99,Weather View 32 v60,2013-06-22 09:49:00,
2013-06-22 05:54:00,64.4,0.0,30.19,West,270,5.0,5.0,0,0.00,,,-99.99,Weather View 32 v60,2013-06-22 09:54:00,
2013-06-22 05:59:00,64.9,0.0,30.19,West,270,3.0,5.0,0,0.00,,,-99.99,Weather View 32 v60,2013-06-22 09:59:00,
2013-06-22 06:04:00,64.9,0.0,30.19,SW,225,5.0,5.0,0,0.00,,,-99.99,Weather View 32 v60,2013-06-22 10:04:00,
2013-06-22 06:09:00,64.9,0.0,30.19,SW,225,6.0,6.0,0,0.00,,,-99.99,Weather View 32 v60,2013-06-22 10:09:00,
2013-06-22 06:14:00,64.9,0.0,30.19,SW,225,4.0,7.0,0,0.00,,,-99.99,Weather View 32 v60,2013-06-22 10:14:00,
2013-06-22 06:19:00,64.9,0.0,30.19,SW,225,7.0,7.0,0,0.00,,,-99.99,Weather View 32 v60,2013-06-22 10:19:00,
2013-06-22 06:29:00,64.9,0.0,30.19,WSW,248,7.0,8.0,0,0.00,,,-99.99,Weather View 32 v60,2013-06-22 10:29:00,
2013-06-22 06:34:00,64.9,0.0,30.19,SW,225,7.0,8.0,0,0.00,,,-99.99,Weather View 32 v60,2013-06-22 10:34:00,
2013-06-22 06:39:00,64.9,0.0,30.19,SW,225,5.0,8.0,0,0.00,,,-99.99,Weather View 32 v60,2013-06-22 10:39:00,
2013-06-22 06:44:00,64.9,0.0,30.19,WSW,248,3.0,9.0,0,0.00,,,-99.99,Weather View 32 v60,2013-06-22 10:44:00,
2013-06-22 06:49:00,64.9,0.0,30.19,WSW,248,4.0,9.0,0,0.00,,,-99.99,Weather View 32 v60,2013-06-22 10:49:00,
2013-06-22 06:54:00,64.9,0.0,30.19,WSW,248,3.0,9.0,0,0.00,,,-99.99,Weather View 32 v60,2013-06-22 10:54:00,
2013-06-22 06:59:00,64.9,0.0,30.19,SW,225,3.0,9.0,0,0.00,,,-99.99,Weather View 32 v60,2013-06-22 10:59:00,
2013-06-22 07:04:00,64.9,0.0,30.19,WSW,248,3.0,9.0,0,0.00,,,-99.99,Weather View 32 v60,2013-06-22 11:04:00,
2013-06-22 07:09:00,65.3,0.0,30.19,SW,225,3.0,9.0,0,0.00,,,-99.99,Weather View 32 v60,2013-06-22 11:09:00,
2013-06-22 07:19:00,65.3,0.0,30.19,West,270,1.0,9.0,0,0.00,,,-99.99,Weather View 32 v60,2013-06-22 11:19:00,
2013-06-22 07:29:00,66.0,0.0,30.19,WNW,293,5.0,9.0,0,0.00,,,-99.99,Weather View 32 v60,2013-06-22 11:29:00,
2013-06-22 07:34:00,66.7,0.0,30.19,WNW,293,2.0,11.0,0,0.00,,,-99.99,Weather View 32 v60,2013-06-22 11:34:00,
2013-06-22 07:39:00,67.1,0.0,30.18,WNW,293,5.0,11.0,0,0.00,,,-99.99,Weather View 32 v60,2013-06-22 11:39:00,
2013-06-22 07:44:00,67.1,0.0,30.18,West,270,3.0,11.0,0,0.00,,,-99.99,Weather View 32 v60,2013-06-22 11:44:00,
2013-06-22 07:49:00,67.5,0.0,30.18,West,270,10.0,11.0,0,0.00,,,-99.99,Weather View 32 v60,2013-06-22 11:49:00,
2013-06-22 07:54:00,67.5,0.0,30.18,SW,225,8.0,13.0,0,0.00,,,-99.99,Weather View 32 v60,2013-06-22 11:54:00,
2013-06-22 07:59:00,67.5,0.0,30.18,WSW,248,6.0,13.0,0,0.00,,,-99.99,Weather View 32 v60,2013-06-22 11:59:00,
2013-06-22 08:04:00,67.5,0.0,30.18,SW,225,5.0,13.0,0,0.00,,,-99.99,Weather View 32 v60,2013-06-22 12:04:00,
2013-06-22 08:09:00,67.1,0.0,30.18,SW,225,6.0,13.0,0,0.00,,,-99.99,Weather View 32 v60,2013-06-22 12:09:00,
2013-06-22 08:14:00,67.1,0.0,30.18,SW,225,6.0,13.0,0,0.00,,,-99.99,Weather View 32 v60,2013-06-22 12:14:00,
2013-06-22 08:24:00,66.7,0.0,30.18,SW,225,7.0,13.0,0,0.00,,,-99.99,Weather View 32 v60,2013-06-22 12:24:00,
2013-06-22 08:29:00,66.4,0.0,30.18,SW,225,7.0,13.0,0,0.00,,,-99.99,Weather View 32 v60,2013-06-22 12:29:00,
2013-06-22 08:34:00,66.4,0.0,30.18,SW,225,7.0,13.0,0,0.00,,,-99.99,Weather View 32 v60,2013-06-22 12:34:00,
2013-06-22 08:39:00,66.4,0.0,30.18,SW,225,5.0,13.0,0,0.00,,,-99.99,Weather View 32 v60,2013-06-22 12:39:00,
2013-06-22 08:44:00,66.4,0.0,30.18,WSW,248,7.0,13.0,0,0.00,,,-99.99,Weather View 32 v60,2013-06-22 12:44:00,
2013-06-22 08:49:00,66.4,0.0,30.18,SW,225,7.0,13.0,0,0.00,,,-99.99,Weather View 32 v60,2013-06-22 12:49:00,
2013-06-22 08:54:00,66.4,0.0,30.18,WSW,248,7.0,9.0,0,0.00,,,-99.99,Weather View 32 v60,2013-06-22 12:54:00,
2013-06-22 08:59:00,66.4,0.0,30.18,SW,225,5.0,9.0,0,0.00,,,-99.99,Weather View 32 v60,2013-06-22 12:59:00,
2013-06-22 09:04:00,66.7,0.0,30.18,WSW,248,7.0,9.0,0,0.00,,,-99.99,Weather View 32 v60,2013-06-22 13:04:00,
2013-06-22 09:09:00,67.1,0.0,30.18,WSW,248,6.0,9.0,0,0.00,,,-99.99,Weather View 32 v60,2013-06-22 13:09:00,
2013-06-22 09:19:00,67.1,0.0,30.18,SW,225,10.0,10.0,0,0.00,,,-99.99,Weather View 32 v60,2013-06-22 13:19:00,
2013-06-22 09:24:00,67.1,0.0,30.18,SW,225,9.0,11.0,0,0.00,,,-99.99,Weather View 32 v60,2013-06-22 13:24:00,
2013-06-22 09:29:00,67.1,0.0,30.18,SW,225,8.0,11.0,0,0.00,,,-99.99,Weather View 32 v60,2013-06-22 13:29:00,
2013-06-22 09:34:00,67.1,0.0,30.18,SW,225,7.0,11.0,0,0.00,,,-99.99,Weather View 32 v60,2013-06-22 13:34:00,
2013-06-22 09:39:00,67.1,0.0,30.18,WSW,248,8.0,11.0,0,0.00,,,-99.99,Weather View 32 v60,2013-06-22 13:39:00,
2013-06-22 09:44:00,67.5,0.0,30.18,SW,225,8.0,11.0,0,0.00,,,-99.99,Weather View 32 v60,2013-06-22 13:44:00,
2013-06-22 09:54:00,67.5,0.0,30.18,SW,225,6.0,11.0,0,0.00,,,-99.99,Weather View 32 v60,2013-06-22 13:54:00,
2013-06-22 09:59:00,67.5,0.0,30.18,SW,225,9.0,11.0,0,0.00,,,-99.99,Weather View 32 v60,2013-06-22 13:59:00,
2013-06-22 10:04:00,67.8,0.0,30.18,SW,225,7.0,11.0,0,0.00,,,-99.99,Weather View 32 v60,2013-06-22 14:04:00,
2013-06-22 10:09:00,67.8,0.0,30.18,WSW,248,8.0,11.0,0,0.00,,,-99.99,Weather View 32 v60,2013-06-22 14:09:00,
2013-06-22 10:14:00,67.8,0.0,30.18,SW,225,9.0,11.0,0,0.00,,,-99.99,Weather View 32 v60,2013-06-22 14:14:00,
2013-06-22 10:19:00,67.8,0.0,30.18,SW,225,9.0,11.0,0,0.00,,,-99.99,Weather View 32 v60,2013-06-22 14:19:00,
2013-06-22 10:24:00,67.8,0.0,30.18,SW,225,10.0,11.0,0,0.00,,,-99.99,Weather View 32 v60,2013-06-22 14:24:00,
2013-06-22 10:29:00,67.8,0.0,30.18,SW,225,8.0,11.0,0,0.00,,,-99.99,Weather View 32 v60,2013-06-22 14:29:00,
2013-06-22 10:39:00,67.8,0.0,30.18,SW,225,8.0,11.0,0,0.00,,,-99.99,Weather View 32 v60,2013-06-22 14:39:00,
2013-06-22 10:44:00,67.8,0.0,30.18,SW,225,10.0,11.0,0,0.00,,,-99.99,Weather View 32 v60,2013-06-22 14:44:00,
2013-06-22 10:49:00,67.8,0.0,30.18,SW,225,9.0,11.0,0,0.00,,,-99.99,Weather View 32 v60,2013-06-22 14:49:00,
2013-06-22 10:54:00,67.8,0.0,30.19,SW,225,8.0,11.0,0,0.00,,,-99.99,Weather View 32 v60,2013-06-22 14:54:00,
2013-06-22 11:03:00,68.2,0.0,30.19,WSW,248,8.0,11.0,0,0.00,,,-99.99,Weather View 32 v60,2013-06-22 15:03:00,
2013-06-22 11:09:00,68.9,0.0,30.19,SW,225,7.0,11.0,0,0.00,,,-99.99,Weather View 32 v60,2013-06-22 15:09:00,
2013-06-22 11:19:00,68.5,0.0,30.19,WSW,248,10.0,11.0,0,0.00,,,-99.99,Weather View 32 v60,2013-06-22 15:19:00,
2013-06-22 11:24:00,68.5,0.0,30.19,SW,225,9.0,11.0,0,0.00,,,-99.99,Weather View 32 v60,2013-06-22 15:24:00,
2013-06-22 11:34:00,68.9,0.0,30.19,SW,225,9.0,11.0,0,0.00,,,-99.99,Weather View 32 v60,2013-06-22 15:34:00,
2013-06-22 11:39:00,69.3,0.0,30.19,WSW,248,10.0,11.0,0,0.00,,,-99.99,Weather View 32 v60,2013-06-22 15:39:00,
2013-06-22 11:44:00,69.6,0.0,30.19,SW,225,12.0,13.0,0,0.00,,,-99.99,Weather View 32 v60,2013-06-22 15:44:00,
2013-06-22 11:49:00,69.6,0.0,30.19,SW,225,11.0,14.0,0,0.00,,,-99.99,Weather View 32 v60,2013-06-22 15:49:00,
2013-06-22 11:59:00,70.0,0.0,30.19,SW,225,10.0,14.0,0,0.00,,,-99.99,Weather View 32 v60,2013-06-22 15:59:00,
2013-06-22 12:04:00,70.0,0.0,30.19,SW,225,9.0,14.0,0,0.00,,,-99.99,Weather View 32 v60,2013-06-22 16:04:00,
2013-06-22 12:09:00,70.0,0.0,30.19,SW,225,12.0,14.0,0,0.00,,,-99.99,Weather View 32 v60,2013-06-22 16:09:00,
2013-06-22 12:14:00,70.9,0.0,30.19,WSW,248,9.0,16.0,0,0.00,,,-99.99,Weather View 32 v60,2013-06-22 16:14:00,
2013-06-22 12:19:00,72.7,0.0,30.18,WSW,248,12.0,16.0,0,0.00,,,-99.99,Weather View 32 v60,2013-06-22 16:19:00,
2013-06-22 12:24:00,74.3,0.0,30.18,SW,225,10.0,17.0,0,0.00,,,-99.99,Weather View 32 v60,2013-06-22 16:24:00,
2013-06-22 12:29:00,75.6,0.0,30.18,WSW,248,7.0,17.0,0,0.00,,,-99.99,Weather View 32 v60,2013-06-22 16:29:00,
2013-06-22 12:34:00,76.6,0.0,30.18,WSW,248,9.0,18.0,0,0.00,,,-99.99,Weather View 32 v60,2013-06-22 16:34:00,
2013-06-22 12:44:00,77.2,0.0,30.18,WSW,248,9.0,18.0,0,0.00,,,-99.99,Weather View 32 v60,2013-06-22 16:44:00,
2013-06-22 12:49:00,77.5,0.0,30.18,SW,225,12.0,18.0,0,0.00,,,-99.99,Weather View 32 v60,2013-06-22 16:49:00,
2013-06-22 12:54:00,77.5,0.0,30.18,WSW,248,10.0,18.0,0,0.00,,,-99.99,Weather View 32 v60,2013-06-22 16:54:00,
2013-06-22 12:59:00,77.5,0.0,30.18,WSW,248,7.0,18.0,0,0.00,,,-99.99,Weather View 32 v60,2013-06-22 16:59:00,
2013-06-22 13:04:00,77.5,0.0,30.17,SW,225,12.0,18.0,0,0.00,,,-99.99,Weather View 32 v60,2013-06-22 17:04:00,
2013-06-22 13:09:00,77.5,0.0,30.17,West,270,6.0,18.0,0,0.00,,,-99.99,Weather View 32 v60,2013-06-22 17:09:00,
2013-06-22 13:14:00,78.3,0.0,30.17,SW,225,11.0,18.0,0,0.00,,,-99.99,Weather View 32 v60,2013-06-22 17:14:00,
2013-06-22 13:24:00,78.6,0.0,30.17,WSW,248,12.0,18.0,0,0.00,,,-99.99,Weather View 32 v60,2013-06-22 17:24:00,
2013-06-22 13:29:00,79.3,0.0,30.17,WSW,248,13.0,18.0,0,0.00,,,-99.99,Weather View 32 v60,2013-06-22 17:29:00,
2013-06-22 13:34:00,79.7,0.0,30.17,WSW,248,12.0,16.0,0,0.00,,,-99.99,Weather View 32 v60,2013-06-22 17:34:00,
2013-06-22 13:39:00,79.3,0.0,30.16,SW,225,13.0,16.0,0,0.00,,,-99.99,Weather View 32 v60,2013-06-22 17:39:00,
2013-06-22 13:44:00,78.1,0.0,30.17,WSW,248,7.0,16.0,0,0.00,,,-99.99,Weather View 32 v60,2013-06-22 17:44:00,
2013-06-22 13:49:00,78.1,0.0,30.16,WSW,248,10.0,17.0,0,0.00,,,-99.99,Weather View 32 v60,2013-06-22 17:49:00,
2013-06-22 13:59:00,79.7,0.0,30.16,WSW,248,11.0,17.0,0,0.00,,,-99.99,Weather View 32 v60,2013-06-22 17:59:00,
2013-06-22 14:04:00,80.1,0.0,30.16,West,270,6.0,17.0,0,0.00,,,-99.99,Weather View 32 v60,2013-06-22 18:04:00,
2013-06-22 14:14:00,80.1,0.0,30.16,WSW,248,8.0,19.0,0,0.00,,,-99.99,Weather View 32 v60,2013-06-22 18:14:00,
2013-06-22 14:19:00,80.1,0.0,30.16,SW,225,9.0,19.0,0,0.00,,,-99.99,Weather View 32 v60,2013-06-22 18:19:00,
2013-06-22 14:24:00,80.1,0.0,30.16,West,270,8.0,19.0,0,0.00,,,-99.99,Weather View 32 v60,2013-06-22 18:24:00,
2013-06-22 14:29:00,80.1,0.0,30.16,SW,225,14.0,19.0,0,0.00,,,-99.99,Weather View 32 v60,2013-06-22 18:29:00,
2013-06-22 14:34:00,79.2,0.0,30.15,WSW,248,10.0,19.0,0,0.00,,,-99.99,Weather View 32 v60,2013-06-22 18:34:00,
2013-06-22 14:44:00,77.4,0.0,30.15,SW,225,12.0,19.0,0,0.00,,,-99.99,Weather View 32 v60,2013-06-22 18:44:00,
2013-06-22 14:49:00,77.4,0.0,30.15,SW,225,11.0,19.0,0,0.00,,,-99.99,Weather View 32 v60,2013-06-22 18:49:00,
2013-06-22 14:54:00,77.0,0.0,30.15,SW,225,10.0,19.0,0,0.00,,,-99.99,Weather View 32 v60,2013-06-22 18:54:00,
2013-06-22 14:59:00,75.9,0.0,30.14,SW,225,8.0,19.0,0,0.00,,,-99.99,Weather View 32 v60,2013-06-22 18:59:00,
2013-06-22 15:04:00,74.7,0.0,30.14,WSW,248,11.0,19.0,0,0.00,,,-99.99,Weather View 32 v60,2013-06-22 19:04:00,
2013-06-22 15:09:00,74.3,0.0,30.14,SW,225,12.0,16.0,0,0.00,,,-99.99,Weather View 32 v60,2013-06-22 19:09:00,
2013-06-22 15:14:00,74.7,0.0,30.14,SW,225,13.0,15.0,0,0.00,,,-99.99,Weather View 32 v60,2013-06-22 19:14:00,
2013-06-22 15:24:00,75.7,0.0,30.13,WSW,248,13.0,15.0,0,0.00,,,-99.99,Weather View 32 v60,2013-06-22 19:24:00,
2013-06-22 15:29:00,75.7,0.0,30.13,SW,225,11.0,15.0,0,0.00,,,-99.99,Weather View 32 v60,2013-06-22 19:29:00,
2013-06-22 15:34:00,76.1,0.0,30.13,SW,225,13.0,15.0,0,0.00,,,-99.99,Weather View 32 v60,2013-06-22 19:34:00,
2013-06-22 15:39:00,75.4,0.0,30.13,SW,225,11.0,15.0,0,0.00,,,-99.99,Weather View 32 v60,2013-06-22 19:39:00,
2013-06-22 15:44:00,75.0,0.0,30.12,SW,225,12.0,15.0,0,0.00,,,-99.99,Weather View 32 v60,2013-06-22 19:44:00,
2013-06-22 15:49:00,75.4,0.0,30.12,SW,225,10.0,15.0,0,0.00,,,-99.99,Weather View 32 v60,2013-06-22 19:49:00,
2013-06-22 15:59:00,75.0,0.0,30.12,SW,225,10.0,15.0,0,0.00,,,-99.99,Weather View 32 v60,2013-06-22 19:59:00,
2013-06-22 16:04:00,73.9,0.0,30.12,SW,225,10.0,15.0,0,0.00,,,-99.99,Weather View 32 v60,2013-06-22 20:04:00,
2013-06-22 16:09:00,73.9,0.0,30.11,SW,225,4.0,15.0,0,0.00,,,-99.99,Weather View 32 v60,2013-06-22 20:09:00,
2013-06-22 16:14:00,73.9,0.0,30.11,WSW,248,10.0,15.0,0,0.00,,,-99.99,Weather View 32 v60,2013-06-22 20:14:00,
2013-06-22 16:19:00,74.7,0.0,30.11,SW,225,10.0,15.0,0,0.00,,,-99.99,Weather View 32 v60,2013-06-22 20:19:00,
2013-06-22 16:24:00,74.7,0.0,30.11,SW,225,5.0,15.0,0,0.00,,,-99.99,Weather View 32 v60,2013-06-22 20:24:00,
2013-06-22 16:29:00,74.3,0.0,30.11,SW,225,10.0,14.0,0,0.00,,,-99.99,Weather View 32 v60,2013-06-22 20:29:00,
2013-06-22 16:39:00,74.3,0.0,30.11,SW,225,12.0,15.0,0,0.00,,,-99.99,Weather View 32 v60,2013-06-22 20:39:00,
2013-06-22 16:44:00,74.7,0.0,30.11,WSW,248,7.0,15.0,0,0.00,,,-99.99,Weather View 32 v60,2013-06-22 20:44:00,
2013-06-22 16:49:00,74.3,0.0,30.10,WSW,248,11.0,15.0,0,0.00,,,-99.99,Weather View 32 v60,2013-06-22 20:49:00,
2013-06-22 16:54:00,74.3,0.0,30.10,SW,225,9.0,15.0,0,0.00,,,-99.99,Weather View 32 v60,2013-06-22 20:54:00,
2013-06-22 16:59:00,74.3,0.0,30.10,SW,225,10.0,15.0,0,0.00,,,-99.99,Weather View 32 v60,2013-06-22 20:59:00,
2013-06-22 17:04:00,74.7,0.0,30.10,SW,225,11.0,15.0,0,0.00,,,-99.99,Weather View 32 v60,2013-06-22 21:04:00,
2013-06-22 17:09:00,74.3,0.0,30.10,SW,225,12.0,15.0,0,0.00,,,-99.99,Weather View 32 v60,2013-06-22 21:09:00,
2013-06-22 17:14:00,73.9,0.0,30.10,WSW,248,10.0,15.0,0,0.00,,,-99.99,Weather View 32 v60,2013-06-22 21:14:00,
2013-06-22 17:24:00,74.3,0.0,30.10,SW,225,7.0,15.0,0,0.00,,,-99.99,Weather View 32 v60,2013-06-22 21:24:00,
2013-06-22 17:29:00,73.6,0.0,30.10,SW,225,5.0,15.0,0,0.00,,,-99.99,Weather View 32 v60,2013-06-22 21:29:00,
2013-06-22 17:34:00,73.6,0.0,30.10,SW,225,3.0,15.0,0,0.00,,,-99.99,Weather View 32 v60,2013-06-22 21:34:00,
2013-06-22 17:39:00,73.2,0.0,30.10,SW,225,9.0,14.0,0,0.00,,,-99.99,Weather View 32 v60,2013-06-22 21:39:00,
2013-06-22 17:44:00,73.2,0.0,30.10,WSW,248,9.0,14.0,0,0.00,,,-99.99,Weather View 32 v60,2013-06-22 21:44:00,
2013-06-22 17:49:00,73.2,0.0,30.10,West,270,7.0,14.0,0,0.00,,,-99.99,Weather View 32 v60,2013-06-22 21:49:00,
2013-06-22 17:54:00,73.2,0.0,30.10,WSW,248,12.0,14.0,0,0.00,,,-99.99,Weather View 32 v60,2013-06-22 21:54:00,
2013-06-22 18:04:00,73.6,0.0,30.10,WSW,248,8.0,14.0,0,0.00,,,-99.99,Weather View 32 v60,2013-06-22 22:04:00,
2013-06-22 18:09:00,73.6,0.0,30.10,WSW,248,11.0,14.0,0,0.00,,,-99.99,Weather View 32 v60,2013-06-22 22:09:00,
2013-06-22 18:14:00,73.6,0.0,30.10,SW,225,11.0,14.0,0,0.00,,,-99.99,Weather View 32 v60,2013-06-22 22:14:00,
2013-06-22 18:24:00,74.3,0.0,30.10,SW,225,12.0,16.0,0,0.00,,,-99.99,Weather View 32 v60,2013-06-22 22:24:00,
2013-06-22 18:29:00,74.3,0.0,30.10,SW,225,13.0,16.0,0,0.00,,,-99.99,Weather View 32 v60,2013-06-22 22:29:00,
2013-06-22 18:34:00,73.9,0.0,30.10,SW,225,8.0,16.0,0,0.00,,,-99.99,Weather View 32 v60,2013-06-22 22:34:00,
2013-06-22 18:39:00,73.2,0.0,30.10,WSW,248,9.0,16.0,0,0.00,,,-99.99,Weather View 32 v60,2013-06-22 22:39:00,
2013-06-22 18:49:00,71.6,0.0,30.10,WSW,248,8.0,16.0,0,0.00,,,-99.99,Weather View 32 v60,2013-06-22 22:49:00,
2013-06-22 18:54:00,71.2,0.0,30.10,SW,225,6.0,16.0,0,0.00,,,-99.99,Weather View 32 v60,2013-06-22 22:54:00,
2013-06-22 18:59:00,70.9,0.0,30.10,SW,225,15.0,16.0,0,0.00,,,-99.99,Weather View 32 v60,2013-06-22 22:59:00,
2013-06-22 19:04:00,70.5,0.0,30.10,SW,225,13.0,16.0,0,0.00,,,-99.99,Weather View 32 v60,2013-06-22 23:04:00,
2013-06-22 19:09:00,70.5,0.0,30.10,WSW,248,14.0,16.0,0,0.00,,,-99.99,Weather View 32 v60,2013-06-22 23:09:00,
2013-06-22 19:14:00,70.2,0.0,30.10,SW,225,18.0,18.0,0,0.00,,,-99.99,Weather View 32 v60,2013-06-22 23:14:00,
2013-06-22 19:19:00,70.2,0.0,30.10,SW,225,17.0,19.0,0,0.00,,,-99.99,Weather View 32 v60,2013-06-22 23:19:00,
2013-06-22 19:24:00,70.2,0.0,30.10,SW,225,16.0,19.0,0,0.00,,,-99.99,Weather View 32 v60,2013-06-22 23:24:00,
2013-06-22 19:34:00,69.8,0.0,30.10,WSW,248,14.0,19.0,0,0.00,,,-99.99,Weather View 32 v60,2013-06-22 23:34:00,
2013-06-22 19:39:00,69.4,0.0,30.11,SW,225,12.0,19.0,0,0.00,,,-99.99,Weather View 32 v60,2013-06-22 23:39:00,
2013-06-22 19:44:00,69.4,0.0,30.11,WSW,248,14.0,19.0,0,0.00,,,-99.99,Weather View 32 v60,2013-06-22 23:44:00,
2013-06-22 19:49:00,69.1,0.0,30.11,WSW,248,12.0,19.0,0,0.00,,,-99.99,Weather View 32 v60,2013-06-22 23:49:00,
2013-06-22 19:54:00,69.1,0.0,30.11,WSW,248,10.0,19.0,0,0.00,,,-99.99,Weather View 32 v60,2013-06-22 23:54:00,
2013-06-22 19:59:00,68.7,0.0,30.11,SW,225,12.0,19.0,0,0.00,,,-99.99,Weather View 32 v60,2013-06-22 23:59:00,
2013-06-22 20:04:00,68.4,0.0,30.11,WSW,248,12.0,19.0,0,0.00,,,-99.99,Weather View 32 v60,2013-06-23 00:04:00,
2013-06-22 20:09:00,68.4,0.0,30.11,SW,225,11.0,19.0,0,0.00,,,-99.99,Weather View 32 v60,2013-06-23 00:09:00,
2013-06-22 20:14:00,68.4,0.0,30.11,SW,225,14.0,19.0,0,0.00,,,-99.99,Weather View 32 v60,2013-06-23 00:14:00,
2013-06-22 20:24:00,68.4,0.0,30.11,SW,225,14.0,18.0,0,0.00,,,-99.99,Weather View 32 v60,2013-06-23 00:24:00,
2013-06-22 20:29:00,68.4,0.0,30.11,SW,225,12.0,18.0,0,0.00,,,-99.99,Weather View 32 v60,2013-06-23 00:29:00,
2013-06-22 20:34:00,68.4,0.0,30.12,WSW,248,14.0,18.0,0,0.00,,,-99.99,Weather View 32 v60,2013-06-23 00:34:00,
2013-06-22 20:39:00,68.4,0.0,30.12,SW,225,12.0,18.0,0,0.00,,,-99.99,Weather View 32 v60,2013-06-23 00:39:00,
2013-06-22 20:44:00,68.4,0.0,30.12,SW,225,13.0,18.0,0,0.00,,,-99.99,Weather View 32 v60,2013-06-23 00:44:00,
2013-06-22 20:49:00,68.0,0.0,30.12,SW,225,14.0,18.0,0,0.00,,,-99.99,Weather View 32 v60,2013-06-23 00:49:00,
2013-06-22 20:54:00,67.6,0.0,30.12,SW,225,12.0,18.0,0,0.00,,,-99.99,Weather View 32 v60,2013-06-23 00:54:00,
2013-06-22 20:59:00,67.6,0.0,30.12,SW,225,12.0,18.0,0,0.00,,,-99.99,Weather View 32 v60,2013-06-23 00:59:00,
2013-06-22 21:08:00,67.6,0.0,30.12,WSW,248,11.0,18.0,0,0.00,,,-99.99,Weather View 32 v60,2013-06-23 01:08:00,
2013-06-22 21:14:00,67.6,0.0,30.13,SW,225,11.0,18.0,0,0.00,,,-99.99,Weather View 32 v60,2013-06-23 01:14:00,
2013-06-22 21:19:00,67.6,0.0,30.13,SW,225,12.0,18.0,0,0.00,,,-99.99,Weather View 32 v60,2013-06-23 01:19:00,
2013-06-22 21:24:00,67.3,0.0,30.13,SW,225,12.0,18.0,0,0.00,,,-99.99,Weather View 32 v60,2013-06-23 01:24:00,
2013-06-22 21:29:00,66.9,0.0,30.13,SW,225,11.0,17.0,0,0.00,,,-99.99,Weather View 32 v60,2013-06-23 01:29:00,
2013-06-22 21:34:00,66.9,0.0,30.13,SW,225,14.0,16.0,0,0.00,,,-99.99,Weather View 32 v60,2013-06-23 01:34:00,
2013-06-22 21:39:00,66.9,0.0,30.13,WSW,248,9.0,15.0,0,0.00,,,-99.99,Weather View 32 v60,2013-06-23 01:39:00,
2013-06-22 21:44:00,66.9,0.0,30.13,WSW,248,12.0,15.0,0,0.00,,,-99.99,Weather View 32 v60,2013-06-23 01:44:00,
2013-06-22 21:49:00,66.9,0.0,30.13,SW,225,11.0,15.0,0,0.00,,,-99.99,Weather View 32 v60,2013-06-23 01:49:00,
2013-06-22 21:59:00,66.9,0.0,30.13,SW,225,13.0,15.0,0,0.00,,,-99.99,Weather View 32 v60,2013-06-23 01:59:00,
2013-06-22 22:04:00,66.9,0.0,30.13,SW,225,14.0,15.0,0,0.00,,,-99.99,Weather View 32 v60,2013-06-23 02:04:00,
2013-06-22 22:09:00,66.9,0.0,30.13,SW,225,14.0,15.0,0,0.00,,,-99.99,Weather View 32 v60,2013-06-23 02:09:00,
2013-06-22 22:14:00,66.9,0.0,30.13,WSW,248,13.0,16.0,0,0.00,,,-99.99,Weather View 32 v60,2013-06-23 02:14:00,
2013-06-22 22:19:00,66.9,0.0,30.13,SW,225,15.0,18.0,0,0.00,,,-99.99,Weather View 32 v60,2013-06-23 02:19:00,
2013-06-22 22:24:00,66.9,0.0,30.13,WSW,248,16.0,18.0,0,0.00,,,-99.99,Weather View 32 v60,2013-06-23 02:24:00,
2013-06-22 22:29:00,66.9,0.0,30.13,SW,225,13.0,18.0,0,0.00,,,-99.99,Weather View 32 v60,2013-06-23 02:29:00,
2013-06-22 22:34:00,66.9,0.0,30.13,SW,225,14.0,18.0,0,0.00,,,-99.99,Weather View 32 v60,2013-06-23 02:34:00,
2013-06-22 22:44:00,66.9,0.0,30.13,SW,225,14.0,18.0,0,0.00,,,-99.99,Weather View 32 v60,2013-06-23 02:44:00,
2013-06-22 22:49:00,66.9,0.0,30.13,WSW,248,13.0,18.0,0,0.00,,,-99.99,Weather View 32 v60,2013-06-23 02:49:00,
2013-06-22 22:54:00,66.9,0.0,30.13,SW,225,15.0,18.0,0,0.00,,,-99.99,Weather View 32 v60,2013-06-23 02:54:00,
2013-06-22 22:59:00,66.9,0.0,30.13,WSW,248,14.0,18.0,0,0.00,,,-99.99,Weather View 32 v60,2013-06-23 02:59:00,
2013-06-22 23:04:00,66.9,0.0,30.13,SW,225,15.0,18.0,0,0.00,,,-99.99,Weather View 32 v60,2013-06-23 03:04:00,
2013-06-22 23:10:00,66.9,0.0,30.13,SW,225,14.0,18.0,0,0.00,,,-99.99,Weather View 32 v60,2013-06-23 03:10:00,
2013-06-22 23:19:00,66.9,0.0,30.13,WSW,248,13.0,18.0,0,0.00,,,-99.99,Weather View 32 v60,2013-06-23 03:19:00,
2013-06-22 23:24:00,66.9,0.0,30.13,WSW,248,15.0,18.0,0,0.00,,,-99.99,Weather View 32 v60,2013-06-23 03:24:00,
2013-06-22 23:34:00,66.9,0.0,30.13,SW,225,14.0,17.0,0,0.00,,,-99.99,Weather View 32 v60,2013-06-23 03:34:00,
2013-06-22 23:39:00,66.9,0.0,30.13,SW,225,13.0,17.0,0,0.00,,,-99.99,Weather View 32 v60,2013-06-23 03:39:00,
2013-06-22 23:44:00,66.9,0.0,30.14,SW,225,13.0,17.0,0,0.00,,,-99.99,Weather View 32 v60,2013-06-23 03:44:00,
2013-06-22 23:49:00,66.9,0.0,30.14,SW,225,13.0,17.0,0,0.00,,,-99.99,Weather View 32 v60,2013-06-23 03:49:00,
2013-06-22 23:54:00,66.9,0.0,30.13,SW,225,13.0,17.0,0,0.00,,,-99.99,Weather View 32 v60,2013-06-23 03:54:00,
2013-06-22 23:59:00,66.9,0.0,30.13,SW,225,8.0,17.0,0,0.00,,,-99.99,Weather View 32 v60,2013-06-23 03:59:00,